CHECKMATE 1

导读

CHECKMATE 1是美国太空军空间发展局SDA主导的新型低轨军用卫星,隶属于扩增作战部队太空架构PWSA的第0批次(Tranche 0)追踪层,由SpaceX建造。2023年4月2日,它由SpaceX猎鹰9号火箭从加州范登堡发射升空,运行在1000公里高度近极地轨道。该卫星搭载宽视野红外传感器,用于弥补美军对高超声速导弹的探测短板,是美军首批新型低轨道导弹预警卫星群的重要组成部分,旨在提升美国反导预警与追踪能力。

基本信息
目录编号:
56168
目录名称:
CHECKMATE 1
国际标识:
2023-050G
轨道中心:
EARTH
卫星名称:
CHECKMATE 1
卫星全名:
--
卫星状态:
在轨 (已飞行1170 天)
发射日期:
2023-04-02 UTC
国别 :
美国 (US)
星等 :
--
轨道信息
数据来源 国际轨道数据 AOE轨道数据
星历时间 2026-06-15T05:01:57+0800
6小时前
查看轨道信息
2026-06-14T02:00:00+0800
1天前
查看轨道信息
半长轴 7324.512km 7324.512km
偏心率 0.0011613 0.0011546
轨道倾角 81.005° 81.004°
近地点辐角 358.452° 1.246°
升交点赤经 74.180° 75.262°
平近点角 1.659° 146.102°
近地点 937.869km 937.918km
远地点 954.881km 954.832km
周期 103.975分钟 103.975分钟
每日圈数 13.84952 13.84952
详细信息
使用方式:
暂无
2D轨道图
3D轨道图
轨道高度分析图
轨道倾角分析图
轨道综合分析图
查看轨道综合分析图